Precipitable_Water
0.32 0.37 0.38 0.41 0.39 0.39 0.40 0.38 0.36 0.30 0.27 0.26 0.26 0.26 0.27 0.28 0.23 0.25 0.39 0.41 0.36 0.45 0.52 0.57 0.60 0.61 0.63 0.68 0.73 0.79 0.84 0.85 0.86 0.85 0.82 0.82 0.83 0.85 0.84 0.84 0.83 0.82 0.80 0.80 0.80 0.80 0.81 0.82 0.83 0.83 0.84 0.85 0.86 0.86 0.87 0.87 0.87 0.87 0.88 0.85 0.83 0.82 0.81 0.79 0.78 0.79 0.79 0.79 0.79 0.78 0.77 0.76 0.75 0.74 0.75 0.76 0.77 0.78 0.80 0.81 0.83 0.85 0.87 0.90 0.93 0.97 1.02
0.34 0.36 0.38 0.43 0.40 0.40 0.39 0.39 0.39 0.37 0.30 0.28 0.29 0.31 0.31 0.29 0.26 0.31 0.38 0.39 0.38 0.46 0.56 0.63 0.69 0.73 0.73 0.75 0.81 0.85 0.83 0.82 0.84 0.83 0.80 0.80 0.81 0.80 0.80 0.81 0.82 0.83 0.83 0.82 0.81 0.81 0.80 0.81 0.82 0.82 0.83 0.84 0.85 0.84 0.84 0.86 0.86 0.87 0.86 0.83 0.82 0.81 0.79 0.79 0.79 0.80 0.79 0.78 0.78 0.77 0.76 0.74 0.74 0.74 0.74 0.75 0.75 0.76 0.77 0.79 0.80 0.83 0.83 0.86 0.89 0.92 0.96
0.33 0.36 0.37 0.42 0.43 0.43 0.38 0.41 0.42 0.38 0.35 0.33 0.33 0.34 0.37 0.36 0.35 0.40 0.44 0.42 0.42 0.58 0.66 0.69 0.77 0.79 0.81 0.80 0.79 0.80 0.81 0.81 0.80 0.80 0.79 0.78 0.78 0.78 0.80 0.82 0.84 0.85 0.84 0.83 0.82 0.80 0.79 0.79 0.80 0.81 0.84 0.85 0.86 0.85 0.85 0.84 0.83 0.85 0.85 0.82 0.80 0.80 0.78 0.79 0.79 0.80 0.79 0.78 0.78 0.76 0.76 0.75 0.75 0.75 0.75 0.76 0.76 0.76 0.77 0.78 0.79 0.81 0.83 0.83 0.84 0.87 0.91
0.29 0.35 0.36 0.41 0.44 0.42 0.41 0.38 0.38 0.38 0.35 0.31 0.35 0.33 0.42 0.37 0.38 0.40 0.42 0.39 0.42 0.58 0.67 0.72 0.76 0.78 0.78 0.75 0.77 0.79 0.80 0.81 0.81 0.79 0.78 0.77 0.76 0.78 0.81 0.85 0.86 0.84 0.83 0.81 0.79 0.78 0.78 0.79 0.81 0.83 0.85 0.85 0.85 0.83 0.84 0.83 0.83 0.85 0.83 0.81 0.80 0.79 0.79 0.79 0.79 0.79 0.79 0.78 0.77 0.77 0.77 0.76 0.76 0.77 0.77 0.77 0.77 0.77 0.78 0.78 0.80 0.81 0.81 0.83 0.85 0.87 0.91
0.30 0.38 0.38 0.37 0.38 0.37 0.32 0.33 0.39 0.44 0.42 0.42 0.44 0.45 0.45 0.40 0.46 0.41 0.33 0.36 0.49 0.55 0.65 0.63 0.68 0.72 0.74 0.77 0.78 0.78 0.80 0.82 0.82 0.80 0.78 0.77 0.78 0.80 0.85 0.85 0.84 0.83 0.82 0.80 0.79 0.79 0.80 0.81 0.82 0.86 0.87 0.85 0.83 0.84 0.83 0.83 0.84 0.81 0.80 0.80 0.79 0.78 0.79 0.79 0.79 0.79 0.79 0.78 0.77 0.78 0.78 0.78 0.78 0.78 0.77 0.77 0.77 0.77 0.76 0.78 0.81 0.81 0.82 0.84 0.86 0.89 0.92
0.31 0.37 0.36 0.36 0.33 0.25 0.25 0.46 0.51 0.49 0.46 0.44 0.39 0.40 0.44 0.48 0.46 0.40 0.44 0.47 0.56 0.59 0.62 0.62 0.64 0.68 0.72 0.78 0.83 0.89 0.85 0.82 0.81 0.81 0.80 0.81 0.82 0.83 0.85 0.88 0.85 0.84 0.82 0.81 0.81 0.82 0.82 0.84 0.87 0.88 0.88 0.83 0.83 0.84 0.83 0.83 0.80 0.79 0.78 0.79 0.79 0.79 0.80 0.80 0.80 0.80 0.79 0.78 0.77 0.79 0.80 0.80 0.79 0.77 0.75 0.74 0.76 0.78 0.79 0.80 0.81 0.82 0.85 0.86 0.89 0.91 0.94
0.29 0.34 0.33 0.28 0.24 0.24 0.42 0.53 0.56 0.57 0.56 0.55 0.47 0.47 0.50 0.51 0.51 0.49 0.51 0.58 0.59 0.63 0.66 0.67 0.71 0.76 0.81 0.83 0.83 0.87 0.91 0.87 0.83 0.81 0.82 0.83 0.84 0.82 0.86 0.86 0.85 0.83 0.81 0.81 0.81 0.82 0.82 0.83 0.84 0.84 0.82 0.82 0.82 0.80 0.80 0.78 0.78 0.76 0.77 0.78 0.78 0.79 0.79 0.81 0.81 0.80 0.79 0.79 0.78 0.79 0.80 0.80 0.78 0.76 0.75 0.75 0.76 0.77 0.78 0.78 0.79 0.81 0.83 0.86 0.89 0.93 0.94
0.36 0.31 0.28 0.21 0.22 0.40 0.47 0.55 0.61 0.62 0.58 0.59 0.55 0.47 0.53 0.57 0.56 0.55 0.52 0.58 0.62 0.65 0.67 0.71 0.74 0.74 0.77 0.80 0.83 0.85 0.88 0.90 0.86 0.83 0.83 0.84 0.85 0.83 0.86 0.84 0.85 0.83 0.81 0.80 0.80 0.80 0.82 0.82 0.82 0.82 0.80 0.81 0.79 0.77 0.79 0.77 0.76 0.77 0.77 0.78 0.78 0.79 0.78 0.79 0.80 0.80 0.80 0.79 0.79 0.79 0.79 0.79 0.78 0.76 0.76 0.76 0.75 0.76 0.77 0.79 0.82 0.84 0.85 0.87 0.88 0.92 0.96
0.26 0.29 0.28 0.28 0.42 0.40 0.43 0.47 0.53 0.56 0.47 0.50 0.49 0.39 0.49 0.60 0.63 0.60 0.55 0.59 0.63 0.66 0.68 0.71 0.73 0.77 0.78 0.74 0.76 0.84 0.86 0.87 0.88 0.86 0.86 0.88 0.86 0.87 0.87 0.86 0.84 0.83 0.83 0.82 0.82 0.83 0.82 0.82 0.80 0.79 0.80 0.80 0.79 0.77 0.76 0.76 0.75 0.75 0.76 0.76 0.77 0.77 0.78 0.80 0.81 0.81 0.81 0.80 0.79 0.80 0.80 0.78 0.77 0.77 0.77 0.77 0.77 0.78 0.76 0.77 0.79 0.81 0.82 0.84 0.87 0.89 0.92
0.36 0.30 0.30 0.32 0.31 0.27 0.36 0.53 0.64 0.69 0.66 0.64 0.60 0.53 0.47 0.61 0.64 0.66 0.60 0.58 0.62 0.65 0.68 0.70 0.72 0.75 0.68 0.60 0.64 0.77 0.82 0.85 0.85 0.88 0.89 0.89 0.88 0.86 0.85 0.85 0.84 0.83 0.83 0.84 0.84 0.82 0.81 0.81 0.81 0.82 0.81 0.80 0.78 0.76 0.74 0.74 0.73 0.73 0.74 0.74 0.76 0.77 0.78 0.81 0.82 0.82 0.83 0.81 0.80 0.80 0.79 0.78 0.77 0.78 0.79 0.80 0.79 0.80 0.76 0.75 0.77 0.79 0.82 0.83 0.86 0.88 0.89
0.33 0.31 0.28 0.28 0.26 0.30 0.45 0.53 0.62 0.68 0.69 0.65 0.63 0.47 0.38 0.58 0.64 0.66 0.64 0.61 0.63 0.64 0.65 0.68 0.72 0.66 0.55 0.56 0.65 0.76 0.80 0.82 0.85 0.85 0.85 0.85 0.86 0.85 0.84 0.82 0.79 0.80 0.81 0.82 0.82 0.82 0.81 0.79 0.81 0.82 0.81 0.79 0.76 0.73 0.72 0.72 0.73 0.72 0.72 0.74 0.76 0.77 0.79 0.81 0.83 0.83 0.83 0.82 0.80 0.80 0.79 0.79 0.80 0.79 0.80 0.79 0.80 0.81 0.79 0.77 0.78 0.80 0.81 0.81 0.83 0.85 0.86
0.33 0.31 0.27 0.26 0.32 0.35 0.48 0.58 0.63 0.65 0.70 0.65 0.51 0.29 0.31 0.55 0.64 0.67 0.66 0.62 0.62 0.65 0.69 0.73 0.70 0.62 0.53 0.56 0.65 0.78 0.80 0.82 0.84 0.83 0.81 0.80 0.82 0.82 0.82 0.82 0.81 0.81 0.82 0.82 0.80 0.79 0.79 0.79 0.81 0.81 0.80 0.78 0.75 0.72 0.72 0.73 0.72 0.72 0.73 0.74 0.77 0.79 0.80 0.82 0.82 0.83 0.83 0.81 0.81 0.81 0.80 0.80 0.82 0.82 0.83 0.81 0.80 0.80 0.79 0.78 0.77 0.78 0.80 0.81 0.80 0.81 0.84
0.32 0.30 0.30 0.33 0.36 0.48 0.57 0.59 0.64 0.65 0.66 0.58 0.34 0.24 0.35 0.58 0.64 0.67 0.67 0.67 0.67 0.67 0.64 0.68 0.63 0.68 0.69 0.70 0.74 0.79 0.81 0.80 0.80 0.82 0.82 0.81 0.81 0.80 0.79 0.80 0.82 0.81 0.81 0.81 0.79 0.79 0.80 0.81 0.81 0.81 0.80 0.77 0.74 0.72 0.71 0.70 0.69 0.71 0.74 0.77 0.78 0.79 0.80 0.81 0.82 0.82 0.83 0.82 0.81 0.82 0.82 0.82 0.82 0.83 0.83 0.81 0.81 0.80 0.79 0.79 0.78 0.77 0.77 0.77 0.78 0.79 0.81
0.30 0.31 0.28 0.29 0.37 0.49 0.58 0.61 0.62 0.65 0.52 0.34 0.30 0.45 0.61 0.62 0.65 0.69 0.69 0.69 0.71 0.71 0.68 0.69 0.69 0.72 0.79 0.78 0.79 0.80 0.80 0.77 0.78 0.79 0.80 0.80 0.80 0.81 0.82 0.82 0.81 0.79 0.79 0.79 0.80 0.80 0.81 0.82 0.82 0.81 0.78 0.74 0.71 0.70 0.68 0.67 0.70 0.74 0.76 0.77 0.78 0.79 0.80 0.80 0.81 0.82 0.82 0.83 0.83 0.83 0.83 0.82 0.81 0.80 0.82 0.82 0.80 0.79 0.78 0.78 0.76 0.75 0.75 0.75 0.74 0.75 0.77
0.36 0.33 0.29 0.28 0.23 0.43 0.57 0.58 0.55 0.59 0.40 0.41 0.54 0.60 0.63 0.68 0.70 0.71 0.70 0.70 0.71 0.72 0.69 0.72 0.72 0.76 0.77 0.77 0.78 0.80 0.78 0.76 0.76 0.77 0.79 0.78 0.77 0.78 0.78 0.78 0.80 0.79 0.77 0.77 0.77 0.77 0.79 0.80 0.79 0.77 0.74 0.69 0.68 0.67 0.66 0.68 0.72 0.74 0.75 0.76 0.77 0.78 0.79 0.79 0.80 0.80 0.81 0.82 0.82 0.83 0.82 0.82 0.81 0.80 0.81 0.80 0.78 0.77 0.76 0.75 0.74 0.73 0.73 0.73 0.72 0.72 0.72
0.32 0.29 0.25 0.26 0.37 0.50 0.57 0.53 0.42 0.51 0.54 0.62 0.63 0.62 0.60 0.69 0.72 0.73 0.72 0.73 0.73 0.73 0.72 0.70 0.73 0.75 0.75 0.75 0.78 0.79 0.76 0.76 0.78 0.78 0.80 0.79 0.79 0.80 0.80 0.79 0.79 0.79 0.76 0.76 0.75 0.77 0.77 0.77 0.76 0.74 0.70 0.67 0.67 0.66 0.66 0.71 0.72 0.73 0.74 0.75 0.76 0.76 0.76 0.77 0.78 0.78 0.79 0.80 0.81 0.82 0.82 0.82 0.81 0.80 0.79 0.78 0.77 0.76 0.75 0.73 0.72 0.71 0.71 0.72 0.71 0.70 0.69
0.39 0.34 0.38 0.48 0.53 0.54 0.58 0.58 0.57 0.62 0.66 0.68 0.68 0.66 0.65 0.64 0.69 0.77 0.72 0.71 0.73 0.75 0.75 0.75 0.74 0.73 0.75 0.74 0.76 0.76 0.74 0.75 0.76 0.77 0.78 0.78 0.77 0.77 0.77 0.77 0.79 0.78 0.75 0.74 0.75 0.75 0.76 0.75 0.74 0.72 0.71 0.67 0.65 0.64 0.67 0.70 0.69 0.69 0.70 0.72 0.72 0.72 0.72 0.73 0.74 0.76 0.77 0.78 0.78 0.80 0.80 0.80 0.78 0.77 0.76 0.76 0.73 0.74 0.73 0.72 0.71 0.70 0.70 0.71 0.69 0.69 0.68
0.54 0.56 0.56 0.58 0.56 0.56 0.57 0.62 0.65 0.64 0.66 0.71 0.71 0.69 0.65 0.68 0.70 0.73 0.71 0.73 0.74 0.76 0.77 0.73 0.74 0.74 0.74 0.74 0.75 0.77 0.76 0.76 0.77 0.78 0.77 0.77 0.77 0.77 0.77 0.77 0.76 0.75 0.74 0.73 0.72 0.71 0.72 0.74 0.72 0.72 0.70 0.68 0.64 0.64 0.67 0.66 0.66 0.66 0.66 0.66 0.67 0.68 0.70 0.71 0.72 0.74 0.74 0.74 0.75 0.76 0.76 0.77 0.76 0.76 0.73 0.72 0.70 0.70 0.70 0.69 0.68 0.67 0.68 0.68 0.68 0.67 0.66
0.44 0.37 0.54 0.54 0.55 0.59 0.60 0.64 0.67 0.69 0.70 0.71 0.72 0.69 0.68 0.68 0.70 0.72 0.75 0.76 0.75 0.75 0.76 0.75 0.75 0.73 0.75 0.74 0.76 0.77 0.77 0.77 0.77 0.76 0.76 0.76 0.76 0.75 0.74 0.75 0.74 0.73 0.72 0.70 0.68 0.68 0.68 0.71 0.71 0.71 0.69 0.66 0.64 0.64 0.63 0.63 0.62 0.61 0.60 0.61 0.62 0.64 0.66 0.68 0.69 0.70 0.69 0.70 0.70 0.71 0.72 0.72 0.71 0.70 0.68 0.67 0.66 0.64 0.64 0.63 0.62 0.62 0.62 0.62 0.61 0.61 0.61
0.44 0.44 0.53 0.57 0.61 0.64 0.66 0.66 0.64 0.65 0.68 0.71 0.72 0.71 0.71 0.70 0.71 0.72 0.74 0.77 0.75 0.76 0.74 0.75 0.74 0.74 0.76 0.76 0.76 0.76 0.77 0.78 0.78 0.77 0.77 0.76 0.74 0.74 0.74 0.73 0.73 0.72 0.71 0.69 0.68 0.67 0.66 0.68 0.70 0.70 0.68 0.66 0.65 0.64 0.64 0.64 0.63 0.62 0.60 0.59 0.58 0.58 0.60 0.63 0.64 0.66 0.66 0.67 0.68 0.67 0.67 0.67 0.66 0.65 0.64 0.63 0.60 0.58 0.56 0.55 0.54 0.54 0.54 0.53 0.52 0.52 0.51
0.50 0.56 0.57 0.57 0.58 0.60 0.63 0.65 0.68 0.69 0.69 0.66 0.66 0.68 0.67 0.68 0.69 0.70 0.73 0.75 0.74 0.74 0.74 0.75 0.74 0.74 0.75 0.76 0.77 0.75 0.75 0.75 0.76 0.75 0.75 0.74 0.73 0.72 0.70 0.70 0.69 0.66 0.66 0.65 0.64 0.63 0.64 0.67 0.68 0.68 0.67 0.67 0.67 0.66 0.65 0.65 0.64 0.63 0.61 0.60 0.58 0.56 0.55 0.55 0.57 0.59 0.60 0.60 0.60 0.60 0.60 0.60 0.60 0.59 0.57 0.55 0.54 0.53 0.55 0.54 0.51 0.49 0.47 0.48 0.48 0.48 0.47
0.39 0.40 0.46 0.52 0.41 0.42 0.52 0.58 0.62 0.64 0.66 0.64 0.63 0.63 0.62 0.62 0.62 0.65 0.66 0.69 0.73 0.74 0.75 0.74 0.74 0.73 0.73 0.74 0.75 0.74 0.74 0.74 0.75 0.74 0.73 0.74 0.75 0.72 0.70 0.67 0.65 0.64 0.63 0.63 0.62 0.62 0.63 0.65 0.65 0.65 0.65 0.67 0.68 0.68 0.67 0.66 0.64 0.61 0.61 0.59 0.57 0.54 0.52 0.51 0.50 0.50 0.50 0.50 0.51 0.50 0.50 0.49 0.49 0.50 0.53 0.52 0.51 0.48 0.47 0.49 0.48 0.47 0.44 0.41 0.42 0.40 0.37
0.33 0.44 0.50 0.53 0.50 0.50 0.54 0.56 0.59 0.61 0.62 0.61 0.59 0.59 0.60 0.60 0.61 0.63 0.61 0.60 0.63 0.66 0.70 0.73 0.73 0.73 0.72 0.74 0.75 0.73 0.73 0.74 0.75 0.74 0.74 0.72 0.72 0.70 0.69 0.66 0.65 0.63 0.63 0.63 0.63 0.63 0.64 0.64 0.63 0.63 0.63 0.64 0.66 0.68 0.67 0.65 0.63 0.61 0.59 0.57 0.55 0.53 0.52 0.50 0.49 0.48 0.47 0.46 0.45 0.44 0.44 0.43 0.42 0.41 0.41 0.43 0.44 0.43 0.42 0.41 0.39 0.38 0.37 0.37 0.37 0.36 0.33
0.44 0.49 0.50 0.51 0.47 0.44 0.50 0.54 0.55 0.57 0.60 0.58 0.56 0.58 0.59 0.59 0.60 0.61 0.62 0.63 0.60 0.60 0.63 0.66 0.69 0.71 0.71 0.71 0.71 0.70 0.70 0.71 0.70 0.70 0.70 0.69 0.67 0.66 0.65 0.64 0.62 0.61 0.60 0.61 0.62 0.62 0.64 0.64 0.64 0.63 0.61 0.61 0.62 0.63 0.64 0.63 0.62 0.59 0.57 0.55 0.53 0.52 0.51 0.50 0.49 0.48 0.47 0.47 0.45 0.44 0.42 0.41 0.38 0.35 0.33 0.32 0.33 0.35 0.35 0.34 0.33 0.33 0.33 0.33 0.33 0.33 0.33
0.40 0.50 0.51 0.51 0.49 0.49 0.51 0.52 0.53 0.55 0.57 0.56 0.54 0.54 0.55 0.55 0.57 0.59 0.58 0.58 0.61 0.61 0.59 0.59 0.62 0.66 0.66 0.65 0.65 0.65 0.65 0.66 0.67 0.66 0.64 0.63 0.62 0.62 0.61 0.60 0.59 0.58 0.59 0.60 0.61 0.62 0.63 0.64 0.64 0.63 0.62 0.61 0.61 0.61 0.62 0.62 0.61 0.57 0.55 0.52 0.50 0.49 0.49 0.49 0.48 0.47 0.46 0.44 0.42 0.40 0.37 0.35 0.34 0.32 0.29 0.27 0.25 0.25 0.29 0.32 0.32 0.31 0.32 0.32 0.32 0.32 0.32
0.48 0.49 0.51 0.52 0.51 0.50 0.50 0.49 0.49 0.50 0.52 0.53 0.53 0.53 0.55 0.55 0.55 0.55 0.55 0.56 0.56 0.58 0.58 0.59 0.58 0.60 0.62 0.62 0.61 0.60 0.60 0.61 0.62 0.62 0.61 0.60 0.60 0.60 0.58 0.57 0.57 0.58 0.58 0.59 0.60 0.60 0.61 0.61 0.62 0.62 0.61 0.61 0.59 0.58 0.58 0.58 0.56 0.53 0.52 0.51 0.51 0.49 0.48 0.46 0.44 0.42 0.41 0.39 0.38 0.36 0.35 0.33 0.31 0.29 0.28 0.26 0.25 0.25 0.24 0.25 0.27 0.29 0.31 0.31 0.31 0.30 0.30
0.49 0.49 0.46 0.45 0.44 0.46 0.48 0.42 0.41 0.49 0.51 0.52 0.51 0.50 0.51 0.52 0.54 0.54 0.55 0.55 0.56 0.56 0.57 0.58 0.59 0.59 0.60 0.62 0.62 0.60 0.58 0.58 0.59 0.60 0.60 0.60 0.59 0.58 0.58 0.58 0.57 0.57 0.57 0.57 0.58 0.59 0.59 0.60 0.61 0.60 0.60 0.60 0.60 0.56 0.53 0.51 0.50 0.49 0.48 0.48 0.47 0.47 0.46 0.44 0.41 0.39 0.37 0.36 0.35 0.34 0.33 0.31 0.30 0.28 0.27 0.27 0.26 0.25 0.24 0.23 0.23 0.23 0.25 0.27 0.30 0.30 0.29
0.47 0.48 0.46 0.36 0.35 0.38 0.42 0.46 0.47 0.49 0.50 0.50 0.49 0.48 0.49 0.50 0.49 0.49 0.49 0.50 0.52 0.54 0.56 0.57 0.57 0.56 0.55 0.56 0.56 0.56 0.57 0.56 0.54 0.55 0.56 0.57 0.58 0.59 0.58 0.56 0.55 0.55 0.55 0.55 0.55 0.56 0.57 0.57 0.57 0.56 0.55 0.56 0.55 0.53 0.51 0.49 0.47 0.45 0.44 0.43 0.41 0.40 0.39 0.39 0.38 0.36 0.35 0.33 0.33 0.32 0.31 0.31 0.30 0.28 0.27 0.26 0.25 0.26 0.26 0.26 0.25 0.24 0.24 0.26 0.28 0.29 0.29
0.47 0.47 0.48 0.45 0.44 0.46 0.47 0.47 0.46 0.47 0.48 0.50 0.51 0.49 0.48 0.44 0.43 0.45 0.46 0.47 0.49 0.51 0.51 0.53 0.55 0.55 0.55 0.54 0.54 0.54 0.53 0.54 0.54 0.54 0.55 0.57 0.58 0.58 0.56 0.54 0.53 0.53 0.53 0.52 0.53 0.54 0.55 0.54 0.52 0.52 0.51 0.50 0.49 0.50 0.49 0.48 0.45 0.42 0.40 0.38 0.36 0.35 0.36 0.35 0.34 0.33 0.32 0.32 0.32 0.32 0.31 0.30 0.28 0.26 0.25 0.25 0.25 0.25 0.25 0.25 0.25 0.26 0.26 0.26 0.26 0.27 0.28
0.47 0.49 0.48 0.47 0.46 0.46 0.43 0.41 0.41 0.43 0.45 0.47 0.48 0.47 0.46 0.44 0.41 0.42 0.44 0.45 0.48 0.48 0.50 0.52 0.51 0.52 0.54 0.53 0.53 0.54 0.53 0.52 0.54 0.56 0.55 0.56 0.57 0.55 0.53 0.52 0.52 0.51 0.51 0.50 0.51 0.53 0.52 0.51 0.50 0.49 0.49 0.49 0.49 0.47 0.46 0.42 0.41 0.39 0.36 0.35 0.33 0.31 0.31 0.32 0.32 0.32 0.30 0.30 0.30 0.30 0.29 0.27 0.26 0.25 0.24 0.23 0.24 0.24 0.24 0.23 0.24 0.25 0.25 0.25 0.25 0.24 0.23
0.45 0.46 0.47 0.46 0.45 0.45 0.42 0.41 0.41 0.42 0.43 0.45 0.46 0.45 0.44 0.44 0.43 0.42 0.43 0.45 0.47 0.47 0.49 0.51 0.50 0.51 0.53 0.54 0.54 0.55 0.55 0.54 0.54 0.55 0.54 0.54 0.53 0.54 0.54 0.52 0.49 0.47 0.47 0.48 0.50 0.51 0.50 0.50 0.50 0.50 0.51 0.51 0.50 0.47 0.44 0.38 0.34 0.32 0.30 0.30 0.30 0.30 0.30 0.30 0.29 0.29 0.29 0.29 0.29 0.28 0.27 0.26 0.25 0.24 0.23 0.23 0.23 0.23 0.23 0.24 0.24 0.25 0.25 0.25 0.25 0.24 0.24
0.40 0.41 0.43 0.42 0.42 0.41 0.41 0.41 0.40 0.41 0.42 0.44 0.44 0.43 0.42 0.42 0.41 0.41 0.44 0.45 0.46 0.47 0.49 0.50 0.50 0.51 0.53 0.55 0.55 0.54 0.52 0.52 0.51 0.51 0.51 0.51 0.52 0.52 0.51 0.50 0.49 0.49 0.49 0.49 0.49 0.49 0.49 0.49 0.48 0.49 0.50 0.49 0.46 0.43 0.40 0.34 0.32 0.30 0.29 0.29 0.28 0.27 0.26 0.26 0.26 0.27 0.27 0.26 0.26 0.25 0.25 0.24 0.24 0.25 0.24 0.23 0.22 0.23 0.24 0.24 0.25 0.25 0.25 0.25 0.25 0.25 0.26
0.38 0.36 0.37 0.39 0.40 0.40 0.39 0.40 0.39 0.40 0.41 0.42 0.44 0.46 0.46 0.46 0.46 0.45 0.45 0.45 0.46 0.47 0.49 0.51 0.52 0.54 0.55 0.54 0.53 0.52 0.51 0.50 0.50 0.50 0.49 0.49 0.49 0.49 0.49 0.49 0.49 0.49 0.50 0.50 0.50 0.49 0.49 0.47 0.46 0.46 0.44 0.42 0.39 0.37 0.36 0.33 0.31 0.30 0.29 0.28 0.27 0.27 0.27 0.27 0.27 0.26 0.25 0.25 0.24 0.23 0.23 0.24 0.24 0.24 0.24 0.23 0.24 0.24 0.24 0.24 0.24 0.24 0.25 0.25 0.25 0.26 0.26
0.41 0.39 0.41 0.43 0.42 0.39 0.38 0.39 0.41 0.41 0.42 0.44 0.45 0.45 0.46 0.46 0.46 0.45 0.45 0.45 0.46 0.47 0.48 0.51 0.53 0.53 0.53 0.52 0.51 0.50 0.49 0.47 0.44 0.44 0.45 0.46 0.47 0.47 0.48 0.49 0.49 0.50 0.51 0.51 0.50 0.48 0.47 0.46 0.43 0.37 0.33 0.33 0.33 0.34 0.34 0.32 0.30 0.29 0.28 0.28 0.28 0.27 0.27 0.27 0.26 0.26 0.25 0.24 0.24 0.24 0.24 0.24 0.24 0.24 0.24 0.24 0.24 0.24 0.24 0.24 0.25 0.25 0.25 0.26 0.26 0.27 0.27
0.49 0.49 0.50 0.50 0.50 0.49 0.48 0.46 0.45 0.44 0.43 0.42 0.43 0.45 0.46 0.47 0.46 0.45 0.46 0.46 0.46 0.48 0.49 0.51 0.52 0.51 0.51 0.50 0.49 0.48 0.47 0.46 0.45 0.45 0.46 0.46 0.47 0.48 0.49 0.49 0.51 0.50 0.49 0.48 0.48 0.47 0.44 0.40 0.35 0.32 0.31 0.30 0.30 0.30 0.30 0.28 0.28 0.27 0.27 0.27 0.27 0.26 0.25 0.25 0.25 0.25 0.25 0.24 0.24 0.24 0.24 0.24 0.24 0.25 0.26 0.26 0.26 0.25 0.26 0.26 0.26 0.27 0.27 0.26 0.27 0.28 0.27
0.52 0.51 0.51 0.52 0.52 0.51 0.49 0.48 0.47 0.46 0.46 0.45 0.46 0.46 0.46 0.47 0.47 0.46 0.46 0.47 0.49 0.50 0.49 0.50 0.50 0.50 0.49 0.49 0.48 0.47 0.47 0.47 0.47 0.47 0.47 0.47 0.49 0.50 0.49 0.49 0.49 0.48 0.49 0.48 0.48 0.43 0.38 0.35 0.32 0.33 0.32 0.31 0.29 0.29 0.28 0.28 0.28 0.27 0.26 0.24 0.23 0.23 0.25 0.25 0.25 0.25 0.25 0.25 0.24 0.24 0.24 0.24 0.25 0.26 0.26 0.27 0.27 0.27 0.27 0.27 0.27 0.28 0.28 0.28 0.28 0.28 0.28
0.54 0.53 0.53 0.54 0.54 0.53 0.51 0.49 0.48 0.48 0.47 0.47 0.47 0.47 0.47 0.48 0.49 0.50 0.50 0.50 0.49 0.49 0.48 0.49 0.49 0.49 0.49 0.50 0.49 0.49 0.49 0.49 0.49 0.49 0.49 0.51 0.51 0.50 0.49 0.49 0.49 0.48 0.46 0.39 0.38 0.39 0.36 0.34 0.33 0.32 0.32 0.31 0.30 0.30 0.31 0.29 0.27 0.26 0.25 0.24 0.24 0.24 0.24 0.24 0.25 0.25 0.25 0.25 0.25 0.25 0.25 0.25 0.25 0.25 0.27 0.27 0.27 0.27 0.27 0.28 0.28 0.28 0.28 0.28 0.28 0.28 0.28
0.53 0.54 0.54 0.55 0.54 0.52 0.51 0.51 0.52 0.51 0.51 0.50 0.50 0.51 0.51 0.50 0.50 0.50 0.49 0.49 0.48 0.47 0.48 0.49 0.49 0.50 0.51 0.51 0.50 0.49 0.49 0.49 0.50 0.50 0.51 0.50 0.51 0.50 0.50 0.49 0.46 0.42 0.36 0.33 0.37 0.37 0.36 0.35 0.33 0.32 0.32 0.31 0.30 0.30 0.31 0.30 0.29 0.28 0.27 0.26 0.26 0.27 0.27 0.26 0.26 0.26 0.26 0.26 0.26 0.26 0.26 0.26 0.25 0.26 0.27 0.27 0.28 0.28 0.28 0.28 0.28 0.28 0.28 0.28 0.28 0.28 0.28
0.52 0.54 0.55 0.55 0.54 0.52 0.50 0.51 0.52 0.52 0.50 0.48 0.48 0.51 0.51 0.49 0.48 0.48 0.47 0.47 0.48 0.50 0.50 0.50 0.50 0.49 0.49 0.49 0.48 0.49 0.50 0.51 0.51 0.51 0.51 0.51 0.50 0.47 0.43 0.40 0.38 0.37 0.35 0.37 0.38 0.37 0.36 0.35 0.34 0.33 0.32 0.32 0.32 0.31 0.32 0.32 0.32 0.31 0.29 0.29 0.27 0.26 0.26 0.28 0.28 0.28 0.28 0.28 0.28 0.28 0.27 0.27 0.27 0.27 0.27 0.27 0.27 0.28 0.28 0.28 0.28 0.29 0.28 0.28 0.28 0.28 0.28
0.52 0.53 0.53 0.54 0.52 0.52 0.50 0.49 0.49 0.48 0.48 0.50 0.49 0.47 0.46 0.45 0.45 0.45 0.46 0.48 0.50 0.51 0.50 0.49 0.48 0.48 0.49 0.49 0.49 0.49 0.50 0.50 0.48 0.47 0.45 0.43 0.41 0.38 0.37 0.36 0.36 0.36 0.37 0.37 0.37 0.36 0.36 0.34 0.34 0.33 0.33 0.33 0.32 0.32 0.32 0.32 0.32 0.31 0.30 0.30 0.30 0.28 0.27 0.27 0.29 0.29 0.29 0.29 0.29 0.28 0.28 0.27 0.27 0.27 0.27 0.28 0.28 0.28 0.28 0.28 0.28 0.29 0.29 0.29 0.29 0.29 0.29
0.51 0.51 0.52 0.52 0.52 0.52 0.51 0.49 0.48 0.48 0.48 0.48 0.47 0.45 0.46 0.46 0.47 0.48 0.48 0.49 0.50 0.51 0.50 0.50 0.49 0.49 0.49 0.49 0.48 0.47 0.45 0.43 0.41 0.39 0.38 0.36 0.34 0.33 0.31 0.30 0.34 0.36 0.35 0.36 0.36 0.35 0.34 0.34 0.33 0.33 0.33 0.33 0.32 0.33 0.32 0.31 0.30 0.31 0.30 0.30 0.30 0.29 0.29 0.29 0.29 0.29 0.29 0.29 0.29 0.28 0.28 0.28 0.28 0.27 0.27 0.28 0.28 0.28 0.29 0.28 0.28 0.28 0.29 0.29 0.29 0.30 0.30
0.50 0.50 0.50 0.50 0.51 0.52 0.52 0.52 0.53 0.53 0.52 0.50 0.49 0.47 0.47 0.49 0.50 0.50 0.50 0.51 0.51 0.52 0.52 0.51 0.51 0.49 0.47 0.44 0.40 0.37 0.36 0.36 0.35 0.35 0.34 0.31 0.30 0.29 0.28 0.29 0.34 0.35 0.35 0.35 0.36 0.35 0.34 0.33 0.32 0.31 0.32 0.33 0.33 0.33 0.32 0.32 0.31 0.30 0.29 0.30 0.30 0.29 0.30 0.30 0.29 0.29 0.30 0.30 0.31 0.30 0.29 0.29 0.28 0.29 0.29 0.29 0.28 0.28 0.28 0.29 0.29 0.28 0.29 0.29 0.29 0.29 0.29
0.50 0.48 0.48 0.48 0.49 0.50 0.50 0.50 0.50 0.50 0.50 0.50 0.50 0.51 0.51 0.51 0.51 0.52 0.52 0.52 0.52 0.51 0.50 0.51 0.48 0.43 0.39 0.35 0.33 0.32 0.32 0.33 0.32 0.32 0.32 0.32 0.32 0.32 0.29 0.30 0.32 0.33 0.34 0.33 0.33 0.33 0.31 0.30 0.29 0.28 0.31 0.32 0.32 0.32 0.32 0.33 0.32 0.31 0.30 0.30 0.30 0.31 0.31 0.31 0.31 0.29 0.30 0.30 0.30 0.31 0.30 0.30 0.30 0.30 0.29 0.29 0.29 0.30 0.30 0.29 0.29 0.29 0.30 0.30 0.30 0.30 0.30
0.50 0.49 0.48 0.48 0.48 0.48 0.49 0.48 0.48 0.49 0.49 0.51 0.53 0.53 0.51 0.51 0.50 0.49 0.48 0.47 0.45 0.44 0.43 0.39 0.36 0.34 0.33 0.32 0.30 0.28 0.28 0.28 0.28 0.28 0.27 0.27 0.28 0.30 0.32 0.31 0.30 0.30 0.30 0.29 0.30 0.30 0.30 0.29 0.27 0.29 0.30 0.32 0.32 0.31 0.31 0.32 0.31 0.31 0.31 0.30 0.31 0.31 0.31 0.31 0.31 0.30 0.30 0.30 0.30 0.30 0.31 0.31 0.31 0.31 0.31 0.30 0.30 0.30 0.30 0.30 0.29 0.29 0.29 0.29 0.30 0.30 0.30
0.47 0.48 0.48 0.49 0.49 0.49 0.48 0.49 0.49 0.48 0.48 0.48 0.46 0.42 0.41 0.41 0.42 0.41 0.38 0.36 0.35 0.34 0.33 0.32 0.31 0.30 0.29 0.28 0.27 0.26 0.26 0.26 0.26 0.25 0.22 0.21 0.21 0.22 0.27 0.29 0.28 0.27 0.27 0.27 0.29 0.30 0.30 0.29 0.27 0.27 0.29 0.31 0.31 0.30 0.30 0.32 0.32 0.32 0.32 0.30 0.30 0.30 0.30 0.31 0.31 0.31 0.31 0.31 0.32 0.32 0.31 0.31 0.32 0.31 0.31 0.31 0.31 0.30 0.30 0.30 0.29 0.29 0.30 0.30 0.30 0.29 0.29
0.42 0.44 0.46 0.45 0.43 0.42 0.43 0.44 0.44 0.43 0.40 0.36 0.33 0.33 0.35 0.35 0.35 0.34 0.33 0.31 0.30 0.29 0.28 0.27 0.25 0.23 0.22 0.23 0.24 0.24 0.24 0.23 0.22 0.22 0.20 0.19 0.18 0.19 0.24 0.26 0.28 0.26 0.27 0.28 0.29 0.30 0.31 0.30 0.30 0.30 0.29 0.29 0.29 0.29 0.30 0.33 0.34 0.33 0.33 0.31 0.31 0.30 0.30 0.30 0.31 0.31 0.32 0.32 0.32 0.32 0.32 0.31 0.31 0.31 0.32 0.31 0.31 0.31 0.31 0.31 0.31 0.31 0.31 0.31 0.31 0.31 0.31
0.31 0.33 0.34 0.35 0.34 0.33 0.33 0.33 0.32 0.31 0.28 0.25 0.23 0.24 0.28 0.31 0.30 0.29 0.28 0.26 0.24 0.22 0.21 0.19 0.17 0.17 0.17 0.18 0.18 0.17 0.17 0.17 0.19 0.22 0.23 0.24 0.24 0.22 0.22 0.22 0.24 0.25 0.26 0.28 0.29 0.30 0.31 0.32 0.31 0.31 0.30 0.28 0.27 0.25 0.27 0.32 0.34 0.33 0.33 0.32 0.31 0.31 0.32 0.31 0.31 0.32 0.32 0.32 0.32 0.32 0.32 0.32 0.32 0.32 0.32 0.31 0.31 0.31 0.31 0.31 0.31 0.32 0.32 0.32 0.32 0.33 0.32
0.27 0.27 0.27 0.27 0.27 0.27 0.28 0.27 0.24 0.22 0.20 0.19 0.18 0.19 0.21 0.24 0.24 0.23 0.21 0.18 0.17 0.17 0.17 0.17 0.17 0.16 0.16 0.16 0.17 0.18 0.18 0.18 0.19 0.23 0.27 0.27 0.27 0.26 0.25 0.24 0.23 0.24 0.24 0.25 0.28 0.30 0.30 0.31 0.30 0.31 0.30 0.28 0.25 0.23 0.24 0.31 0.34 0.33 0.32 0.32 0.33 0.33 0.33 0.34 0.34 0.34 0.34 0.34 0.34 0.33 0.33 0.32 0.33 0.33 0.32 0.32 0.32 0.33 0.33 0.32 0.32 0.33 0.33 0.33 0.33 0.33 0.33
0.26 0.26 0.27 0.27 0.27 0.25 0.24 0.22 0.20 0.19 0.19 0.19 0.18 0.18 0.20 0.19 0.18 0.18 0.18 0.18 0.18 0.17 0.16 0.16 0.15 0.14 0.15 0.18 0.20 0.22 0.24 0.26 0.25 0.24 0.27 0.29 0.28 0.28 0.28 0.27 0.24 0.23 0.23 0.24 0.25 0.27 0.28 0.29 0.29 0.30 0.31 0.30 0.29 0.25 0.24 0.28 0.32 0.33 0.32 0.32 0.33 0.34 0.34 0.35 0.35 0.35 0.35 0.34 0.35 0.35 0.34 0.34 0.34 0.34 0.34 0.33 0.34 0.34 0.34 0.34 0.34 0.34 0.34 0.34 0.34 0.34 0.34
0.26 0.25 0.25 0.25 0.25 0.24 0.22 0.19 0.18 0.19 0.20 0.19 0.18 0.18 0.17 0.18 0.17 0.17 0.18 0.18 0.18 0.17 0.15 0.15 0.13 0.13 0.16 0.19 0.21 0.23 0.25 0.26 0.28 0.29 0.30 0.30 0.30 0.30 0.30 0.30 0.27 0.26 0.25 0.24 0.24 0.26 0.27 0.29 0.30 0.31 0.31 0.30 0.30 0.29 0.26 0.26 0.30 0.32 0.33 0.33 0.34 0.35 0.35 0.35 0.35 0.35 0.35 0.35 0.35 0.35 0.35 0.35 0.35 0.35 0.34 0.34 0.34 0.35 0.35 0.35 0.34 0.35 0.35 0.35 0.35 0.35 0.35
0.25 0.24 0.23 0.24 0.24 0.24 0.22 0.20 0.19 0.20 0.20 0.19 0.18 0.17 0.16 0.17 0.17 0.18 0.19 0.19 0.19 0.16 0.16 0.16 0.13 0.11 0.13 0.16 0.18 0.21 0.24 0.25 0.27 0.28 0.29 0.29 0.31 0.31 0.31 0.31 0.30 0.29 0.29 0.28 0.27 0.27 0.28 0.29 0.29 0.30 0.31 0.30 0.30 0.29 0.28 0.27 0.27 0.30 0.32 0.33 0.34 0.35 0.35 0.35 0.35 0.34 0.35 0.35 0.35 0.36 0.36 0.36 0.35 0.35 0.35 0.35 0.35 0.35 0.35 0.35 0.35 0.35 0.35 0.35 0.35 0.35 0.35
0.25 0.23 0.24 0.24 0.24 0.24 0.22 0.20 0.21 0.21 0.20 0.19 0.18 0.16 0.16 0.17 0.17 0.19 0.20 0.20 0.19 0.17 0.17 0.17 0.17 0.17 0.18 0.20 0.22 0.24 0.26 0.27 0.28 0.29 0.29 0.30 0.31 0.32 0.32 0.32 0.31 0.31 0.30 0.29 0.29 0.29 0.30 0.31 0.32 0.32 0.31 0.30 0.29 0.29 0.29 0.28 0.28 0.28 0.30 0.33 0.34 0.35 0.36 0.36 0.35 0.35 0.35 0.35 0.36 0.36 0.36 0.36 0.36 0.35 0.35 0.35 0.35 0.35 0.35 0.35 0.34 0.34 0.34 0.35 0.36 0.36 0.37
Wind_Speed
19 19 18 17 17 17 18 18 19 23 25 24 23 22 22 21 21 21 22 22 22 23 23 22 22 22 22 22 22 22 22 21 20 19 18 18 17 17 16 17 17 16 16 16 15 15 14 14 14 14 13 12 11 11 11 11 11 12 12 12 11 11 11 11 12 11 11 11 11 12 12 13 14 15 15 15 16 16 16 16 17 17 18 18 18 17 15
17 17 17 17 17 16 17 17 18 20 23 24 23 22 22 21 21 22 23 23 21 20 21 20 21 21 21 21 21 22 22 20 19 18 17 17 17 17 17 16 16 15 15 16 15 15 14 14 14 14 13 12 11 10 10 10 11 11 12 12 11 11 11 11 11 11 11 11 11 12 13 13 14 14 14 15 15 15 16 16 17 17 17 18 17 16 15
17 17 17 16 16 16 16 16 16 17 20 22 22 21 20 18 19 20 22 21 20 19 19 19 20 21 21 21 22 22 22 21 19 18 17 17 17 17 17 16 15 15 15 15 15 15 15 15 15 14 12 11 10 10 10 10 11 11 11 11 11 11 11 11 11 11 11 11 11 12 12 13 13 13 13 14 14 15 15 16 16 17 17 17 16 16 15
17 17 17 15 15 16 16 16 15 16 19 21 21 21 20 19 19 20 21 21 21 20 20 20 21 21 21 21 22 22 21 20 19 18 18 17 16 16 16 16 15 15 15 14 14 14 15 15 14 13 12 10 10 10 10 11 11 11 11 11 11 11 11 11 11 11 11 10 11 11 12 12 12 12 13 13 14 14 15 15 16 16 16 16 16 15 14
15 16 18 16 15 15 16 17 16 16 19 20 20 20 20 20 21 21 21 22 22 21 20 21 22 22 21 21 21 21 20 19 18 19 18 17 16 16 16 16 16 15 15 14 14 14 14 13 13 12 11 10 10 10 10 11 11 11 11 11 11 11 11 11 11 11 10 10 10 11 11 11 11 12 12 13 14 14 15 15 15 15 16 15 15 14 13
15 16 17 16 16 17 18 18 17 17 17 19 20 20 19 19 20 18 18 20 21 21 21 21 21 21 20 20 20 19 19 19 19 19 19 18 17 16 16 16 15 15 14 14 13 13 12 12 12 11 11 10 10 10 11 11 11 11 11 11 11 11 11 11 11 11 10 10 10 10 10 11 11 12 12 13 14 14 14 14 14 15 15 15 14 13 13
17 17 16 15 17 19 18 16 17 18 17 17 18 18 18 18 18 17 18 19 20 20 20 20 19 19 18 18 17 17 16 17 18 18 18 17 17 16 16 16 15 15 14 13 12 12 12 11 11 10 10 10 10 10 11 11 12 11 11 11 10 10 11 11 11 11 10 10 10 10 10 10 11 11 12 13 13 14 14 13 13 13 14 13 13 12 12
17 17 17 16 17 18 16 15 16 18 18 17 16 16 16 18 18 19 19 19 19 18 19 19 19 18 17 16 15 16 15 15 16 17 17 17 16 17 16 16 15 14 13 13 12 11 11 11 10 10 10 10 11 11 11 11 12 11 11 10 10 10 10 10 11 11 10 10 10 10 10 10 10 11 12 12 13 13 13 12 12 12 12 12 11 11 11
16 17 16 15 14 15 16 16 17 18 18 18 18 17 17 17 18 19 19 19 19 19 19 20 19 18 17 15 15 16 17 16 15 15 16 16 16 16 16 15 15 14 12 12 11 10 10 10 10 10 10 10 10 11 11 11 11 11 11 10 10 11 11 11 11 11 11 10 10 10 10 10 10 11 11 12 12 12 12 11 11 11 11 10 10 10 9
15 16 14 12 12 15 18 18 18 17 18 18 17 17 16 16 17 18 19 19 19 19 20 21 20 19 17 17 17 17 18 17 16 15 15 15 15 15 15 15 14 13 11 11 10 10 9 9 9 10 10 10 10 10 11 11 11 10 10 10 11 11 11 11 11 11 10 10 10 10 9 9 10 10 10 11 11 11 11 10 10 10 10 9 9 9 9
16 16 14 13 13 15 17 19 18 17 17 17 16 15 17 18 18 18 19 19 19 19 20 21 21 19 18 18 18 18 18 17 17 16 15 15 15 15 15 15 14 12 11 11 10 9 9 9 9 9 9 9 9 9 10 10 10 10 10 11 11 11 11 10 10 10 10 10 9 9 9 9 9 9 9 9 10 10 9 9 9 9 9 8 8 8 8
16 16 15 13 13 13 15 17 18 18 17 16 15 16 18 20 19 19 19 19 19 19 20 20 20 19 18 17 17 18 18 17 16 16 16 16 16 15 15 14 13 12 11 10 9 8 8 8 8 8 8 9 9 9 9 10 10 10 10 11 11 10 10 10 9 9 9 9 9 8 8 8 8 8 8 8 8 9 9 8 8 8 8 8 8 8 8
16 16 15 13 13 14 15 16 17 17 15 15 16 17 18 19 21 20 20 19 19 19 20 19 17 16 16 16 17 18 18 17 16 16 15 15 15 15 15 14 13 12 11 10 9 8 8 8 8 8 8 8 8 9 9 9 9 9 10 10 9 9 9 9 8 8 8 8 8 8 8 7 7 7 7 8 8 8 8 8 7 7 7 7 7 8 8
16 16 14 12 13 14 15 15 16 16 15 15 17 16 16 19 21 21 20 20 19 18 18 17 16 16 17 17 17 18 18 17 16 16 16 15 15 15 14 14 13 12 10 9 9 8 8 8 8 8 8 8 8 8 8 8 8 8 8 8 8 8 8 7 7 7 7 7 7 7 7 7 7 7 7 8 8 8 8 7 7 7 7 7 7 7 7
15 15 14 13 13 14 15 15 15 15 15 15 15 14 14 17 20 21 21 21 19 18 17 17 18 19 18 17 18 18 17 17 16 16 16 15 15 14 14 13 12 11 10 9 9 9 9 9 8 8 7 7 7 7 7 7 8 7 7 7 6 6 6 6 6 6 6 6 6 6 6 6 6 6 7 7 8 8 7 7 6 6 6 6 6 6 7
14 15 15 14 13 13 14 15 15 14 14 14 15 15 14 15 19 22 22 21 20 19 18 19 20 20 19 18 19 18 17 17 17 16 16 16 15 14 14 13 12 11 10 9 9 9 9 9 8 8 7 7 7 7 7 7 7 6 5 5 5 5 5 5 5 5 5 5 6 6 6 6 6 6 6 7 7 7 6 6 6 5 5 5 5 5 6
13 14 14 13 12 12 12 13 13 13 12 13 15 15 15 15 18 21 21 21 20 20 20 20 20 20 19 19 19 19 18 17 17 16 16 16 15 14 14 13 12 12 11 10 10 10 10 10 9 8 8 7 7 6 7 7 6 5 5 5 4 4 4 4 4 4 4 4 5 5 6 6 5 5 5 5 5 5 5 5 5 5 4 5 5 5 5
13 12 11 12 11 10 10 11 12 13 12 13 14 14 14 15 17 19 20 20 19 20 21 21 20 19 19 20 20 20 19 18 17 17 16 16 15 15 14 14 14 13 12 11 10 10 10 10 9 8 7 6 6 6 6 6 5 5 4 4 3 3 3 4 4 4 3 4 4 4 4 4 4 4 4 3 4 4 4 5 5 5 5 5 5 6 6
13 12 11 11 10 10 11 11 12 12 12 13 14 14 14 15 17 18 19 19 20 20 20 20 20 20 20 20 21 20 19 18 16 16 16 16 15 15 15 14 14 13 12 11 11 10 10 10 9 8 7 6 6 6 6 5 4 4 3 3 3 3 3 3 3 3 3 3 3 3 3 2 2 2 3 3 3 4 4 5 5 5 5 5 5 6 6
11 11 11 10 8 9 11 12 12 13 13 13 13 14 15 16 17 18 18 19 20 20 20 20 21 21 21 21 21 20 19 18 16 16 16 15 15 14 14 14 13 13 13 12 11 10 10 10 9 8 7 7 7 7 6 5 5 4 3 2 2 2 2 2 2 2 2 2 1 1 1 1 1 2 2 3 3 4 4 4 4 4 5 5 5 5 5
10 11 12 11 9 9 10 12 13 14 14 14 13 14 15 17 17 18 18 19 19 20 20 20 21 21 20 21 21 20 19 18 17 16 15 15 14 14 14 13 12 12 12 12 11 10 10 9 9 8 8 8 8 8 7 6 5 4 3 2 2 1 1 2 2 2 2 1 1 1 0 1 1 2 2 3 3 3 4 4 4 4 4 4 5 5 5
10 10 11 11 10 9 10 13 14 14 14 14 14 15 16 16 17 18 17 17 18 19 20 20 20 20 20 20 20 19 18 17 16 16 15 15 14 14 13 13 12 11 11 10 9 9 10 9 9 8 8 8 8 8 8 7 6 5 4 3 2 2 2 2 2 2 1 1 1 0 0 1 1 2 3 3 3 3 4 4 4 5 5 5 5 5 5
9 10 10 11 10 10 11 13 14 14 14 14 14 15 15 16 16 17 17 17 18 18 19 19 20 19 19 20 19 18 17 17 16 16 15 15 15 14 13 13 12 11 11 10 10 9 10 10 9 9 8 8 8 8 8 8 7 6 5 4 3 3 2 2 2 1 1 1 0 0 1 1 1 1 2 3 4 4 4 4 5 5 5 5 6 6 6
8 10 11 12 11 11 12 14 14 14 14 14 14 15 15 15 16 16 17 17 18 17 17 18 19 19 19 19 19 18 17 17 17 16 15 15 14 14 13 12 11 11 11 11 11 11 11 10 9 9 8 8 8 8 8 8 7 6 5 5 4 4 3 3 3 2 1 1 0 0 1 1 1 2 2 2 3 4 4 4 4 5 5 5 5 5 6
9 10 12 12 12 12 12 13 13 13 13 13 14 14 15 15 15 16 16 16 17 17 17 17 18 19 19 19 19 19 18 17 17 16 15 15 14 14 13 12 11 11 11 11 11 11 11 10 9 9 8 8 8 8 8 8 7 7 7 6 5 5 5 4 4 3 3 2 2 1 2 2 2 2 2 2 2 3 3 4 4 5 5 5 5 5 5
10 11 11 11 11 12 12 12 12 12 13 14 14 14 15 15 15 16 16 16 16 17 18 18 18 19 18 18 19 18 17 17 16 16 16 15 14 13 13 12 11 11 11 11 10 10 10 10 10 9 9 9 9 8 8 8 7 7 7 7 7 7 6 6 5 4 4 4 3 3 3 2 2 2 2 2 2 2 3 3 4 5 5 5 5 5 5
10 12 12 11 11 12 13 13 13 13 14 14 14 15 15 15 16 16 16 16 16 16 17 18 19 19 18 18 18 18 17 17 16 16 15 15 14 13 13 12 11 11 11 10 10 10 10 10 9 9 9 9 9 9 8 8 7 7 7 7 7 7 7 7 6 6 5 5 4 3 3 2 1 1 1 1 1 2 3 3 4 4 4 5 5 5 5
11 12 13 13 14 14 14 14 14 15 15 15 15 15 16 16 16 16 16 16 16 16 17 18 19 19 19 18 18 18 17 17 16 15 15 15 14 14 13 11 11 11 11 10 10 10 10 10 9 9 9 9 9 9 9 8 7 7 7 7 7 6 6 6 6 6 5 4 4 3 2 1 0 0 1 1 1 2 3 3 3 4 4 4 4 5 5
12 13 13 14 15 15 15 15 15 15 16 16 16 16 16 16 16 16 16 16 17 17 17 18 18 19 19 18 18 18 17 17 16 16 15 15 15 14 13 11 11 11 10 10 10 10 10 10 9 9 9 10 9 9 9 8 8 8 7 7 7 6 6 5 5 5 4 4 3 3 2 2 1 1 2 2 2 3 3 3 3 3 3 3 4 4 5
13 13 14 14 15 15 16 16 16 17 17 17 17 17 17 17 16 16 17 17 18 18 18 18 18 18 19 19 19 18 17 17 16 15 15 15 15 14 13 12 11 11 10 11 11 11 10 10 10 10 10 10 10 9 8 8 8 8 7 7 6 6 6 5 5 5 5 4 4 4 4 3 3 3 3 3 3 3 3 3 3 3 2 3 3 4 5
13 14 15 15 16 16 16 16 17 18 18 19 19 19 18 18 17 17 18 18 18 18 19 19 19 19 19 19 19 18 17 17 16 15 15 15 15 14 13 12 11 11 11 11 11 11 10 10 10 10 11 10 10 9 8 8 7 7 7 7 6 6 6 6 5 5 6 5 5 5 5 4 4 4 3 3 3 3 2 2 2 2 2 3 3 4 4
14 14 15 15 16 16 16 17 17 18 19 20 20 20 20 20 19 19 18 18 19 19 20 20 20 20 19 19 18 18 17 16 16 16 15 15 15 14 13 12 12 12 12 12 12 11 11 11 10 10 10 10 10 9 8 8 8 8 7 7 7 7 7 7 6 6 6 6 5 5 4 4 3 3 3 2 2 2 2 2 2 2 2 2 3 3 4
14 14 15 15 16 16 16 17 18 18 19 20 21 21 21 21 20 20 19 19 19 20 20 20 20 20 19 19 18 17 17 16 16 15 15 15 15 14 13 13 13 13 13 12 12 11 11 11 10 10 10 10 10 9 9 9 8 8 8 8 8 8 7 7 7 7 6 5 5 4 4 3 3 2 2 2 2 2 2 2 2 2 2 2 2 3 4
15 14 14 15 15 15 16 17 17 18 19 20 21 21 21 22 22 21 20 20 20 20 20 20 20 20 19 19 18 17 16 16 15 15 15 15 15 14 13 14 14 13 13 12 12 12 11 10 10 10 10 10 10 10 9 9 9 9 9 9 9 8 8 7 7 6 5 5 4 3 3 3 3 2 2 1 1 1 1 1 1 2 2 2 3 3 4
13 13 12 13 13 14 15 16 16 17 18 19 20 21 22 22 23 22 21 21 20 20 20 20 20 20 19 19 18 17 17 16 15 15 15 15 15 14 14 14 14 13 12 12 12 12 11 11 10 10 10 10 10 10 10 10 10 10 10 9 9 8 8 7 6 6 5 4 4 3 3 3 3 3 2 2 1 1 1 1 1 2 2 2 3 4 4
11 11 11 12 12 13 13 14 15 16 17 18 19 21 22 22 23 22 22 21 21 20 20 20 20 20 19 18 18 17 17 16 15 15 15 16 15 15 14 13 13 13 12 12 12 12 12 11 11 11 11 11 11 11 11 11 10 10 9 8 8 8 7 7 6 6 5 5 4 3 2 2 3 3 3 2 2 2 2 2 2 2 2 3 3 4 4
10 11 11 11 11 12 12 12 14 15 16 17 18 20 21 22 22 22 21 21 21 21 21 20 20 20 19 19 18 17 17 16 16 15 16 16 16 15 14 13 13 13 13 12 13 13 13 13 12 12 12 12 12 12 11 10 10 9 8 8 8 7 7 7 6 5 5 4 4 3 3 2 2 3 3 2 2 2 3 3 3 3 3 3 3 4 4
9 10 10 11 11 12 11 12 12 14 15 16 17 18 20 21 22 21 21 21 21 21 20 20 20 19 19 19 18 17 17 16 16 15 16 16 15 15 15 14 14 14 13 14 14 14 14 14 14 14 13 13 12 11 10 10 9 9 8 8 7 7 6 6 6 5 5 5 4 3 3 3 3 3 3 3 3 3 4 4 4 4 3 3 3 4 5
9 9 10 11 11 12 12 12 12 13 14 15 16 17 19 20 20 20 20 19 19 19 19 19 19 19 18 18 18 17 17 16 16 16 16 15 15 16 16 16 15 15 14 14 15 15 15 15 15 14 13 12 11 10 10 9 10 9 8 8 7 6 6 5 5 5 5 5 5 4 4 4 4 4 4 4 4 4 4 4 4 4 4 3 4 5 5
9 10 11 12 12 12 12 12 13 14 15 15 15 17 18 19 19 20 19 19 19 19 19 19 19 18 18 18 18 17 17 17 17 17 16 16 16 16 16 16 16 15 15 15 15 15 15 14 13 13 12 12 11 10 9 9 9 9 8 7 7 6 6 6 5 5 5 5 5 5 5 5 4 5 5 4 4 4 4 4 4 4 4 4 5 6 6
10 11 12 12 12 12 12 12 13 14 14 14 15 17 18 19 19 19 19 19 19 19 19 19 19 18 18 18 18 18 18 18 18 18 17 17 17 17 17 17 16 16 16 15 15 14 14 13 12 12 12 12 11 10 8 8 8 8 8 7 7 6 6 6 6 5 5 5 5 6 6 6 5 5 5 4 4 4 4 4 4 4 5 5 6 7 7
11 12 12 12 12 13 13 13 13 14 14 15 16 17 19 19 19 19 18 19 19 19 20 20 20 19 19 19 19 19 19 19 19 19 18 17 17 18 17 17 16 16 15 15 14 14 13 12 12 12 12 12 11 9 9 8 7 7 7 7 7 6 6 6 6 6 6 6 6 6 6 5 5 5 5 4 4 4 4 4 5 5 5 6 6 7 8
12 12 12 12 13 13 13 14 14 14 15 16 17 18 18 18 18 18 19 19 19 19 20 21 21 21 20 20 20 19 19 19 19 18 18 18 18 17 17 16 16 15 15 14 14 14 14 12 12 12 12 12 11 9 8 8 7 7 7 7 6 6 6 6 6 6 6 6 6 6 6 6 5 5 5 5 5 5 5 6 6 7 7 7 8 8 9
13 13 13 13 13 14 14 15 15 16 16 17 18 18 17 17 18 19 19 19 19 20 20 21 21 21 21 21 20 20 20 20 19 18 18 17 17 16 16 16 15 15 15 14 14 14 13 12 12 12 12 11 10 9 8 7 7 7 7 7 7 7 7 6 6 6 6 6 6 6 6 6 6 6 6 6 6 7 7 8 8 8 9 9 10 10 11
14 14 14 14 13 13 14 15 16 16 17 17 17 16 16 17 18 20 20 20 20 20 21 21 21 21 21 21 21 21 20 19 18 18 17 17 16 16 15 15 15 14 14 14 14 13 12 11 11 11 11 11 10 9 8 7 7 7 7 7 8 8 7 7 7 6 6 6 6 6 7 7 7 7 7 7 8 8 8 9 9 10 10 11 11 11 12
13 14 14 13 13 14 15 16 17 17 17 17 17 17 18 19 20 20 20 21 20 20 20 20 20 20 20 21 20 19 19 18 18 18 17 16 15 15 15 15 14 14 14 14 13 12 11 11 10 10 10 10 10 10 9 8 8 8 7 7 7 8 8 8 8 8 7 8 8 8 8 8 8 8 8 8 9 9 9 10 10 11 11 11 12 12 13
13 13 14 14 14 15 17 17 18 18 18 18 17 18 19 20 20 20 20 20 20 20 20 20 19 19 19 19 19 19 19 18 18 18 17 16 14 14 14 14 14 14 14 13 13 12 11 10 10 10 9 9 9 10 10 9 9 8 8 8 8 8 8 8 8 8 8 8 8 8 8 8 8 9 9 9 9 9 10 11 11 11 12 12 13 13 14
13 14 14 15 16 17 18 18 18 19 19 19 19 19 19 20 20 20 20 19 19 19 19 18 18 19 19 19 19 19 18 18 17 16 15 15 14 13 13 13 13 13 13 13 13 12 11 11 10 10 9 8 8 9 10 10 10 9 9 9 9 9 9 9 9 9 9 9 9 9 9 9 9 10 10 10 10 11 11 12 12 13 13 13 14 14 15
15 15 15 16 17 18 19 19 19 19 19 19 20 20 20 20 20 19 19 19 19 18 18 18 18 18 19 19 18 18 17 16 15 14 13 13 13 13 12 13 13 13 13 13 13 12 12 11 11 11 10 9 9 10 11 11 12 11 10 10 10 10 10 10 10 11 11 11 11 11 11 11 12 12 12 12 13 13 13 14 14 14 14 15 15 15 16
16 16 17 17 18 19 19 19 19 19 19 20 19 19 19 19 19 19 18 19 18 18 17 17 17 18 18 18 17 16 16 15 14 13 12 12 13 13 12 13 13 13 13 13 13 13 12 12 12 12 11 11 11 11 11 12 13 13 12 12 12 12 12 12 12 12 13 13 13 13 13 13 14 14 14 14 14 15 15 15 15 15 15 16 16 16 17
17 17 17 18 18 18 18 18 18 18 18 18 18 18 18 18 18 18 18 18 18 17 17 16 16 17 17 17 16 15 15 15 14 13 13 13 12 13 13 13 13 13 13 13 13 13 13 12 12 12 13 13 12 12 13 13 14 14 14 14 14 14 13 13 13 14 14 14 14 15 15 15 15 15 16 16 16 16 16 16 16 17 17 17 18 18 18
17 17 17 17 17 17 17 17 17 17 17 17 17 17 17 17 17 17 17 17 17 16 16 16 15 16 16 15 15 14 14 13 13 14 14 14 13 13 14 14 13 13 13 13 13 13 13 13 13 13 14 14 14 14 14 14 15 15 16 16 16 16 16 15 15 15 15 15 16 16 16 16 16 17 17 17 17 17 17 18 18 18 18 19 19 20 20
Wind_Direction
203 204 207 212 212 213 217 219 221 221 215 207 209 215 215 212 213 216 214 206 206 211 213 211 210 210 211 212 211 210 210 212 214 215 215 216 219 219 217 217 219 219 219 220 221 221 222 223 224 228 233 238 244 252 258 265 272 276 279 282 284 283 284 287 290 293 295 298 301 304 306 310 312 315 317 318 320 321 323 325 325 327 329 331 334 335 332
197 199 201 207 210 213 219 222 220 219 213 208 211 216 218 218 218 214 209 207 210 212 211 211 210 208 208 207 206 205 206 208 210 213 213 213 215 217 215 215 217 217 219 222 224 225 225 224 225 229 234 238 244 253 261 268 275 278 281 282 281 281 283 286 289 291 294 298 301 305 308 312 316 318 321 322 324 325 326 327 327 327 329 331 333 335 333
200 201 196 201 209 210 216 220 218 215 211 208 210 212 215 217 214 206 202 204 211 213 211 209 208 208 207 206 206 207 207 208 209 212 213 211 212 214 215 214 214 215 219 222 225 228 230 230 230 230 232 236 244 255 263 271 276 278 281 282 281 281 282 284 286 289 293 298 302 305 309 315 319 322 324 326 328 329 329 329 329 329 330 332 334 336 334
204 207 199 201 208 208 213 218 217 214 210 207 208 211 213 210 203 198 198 204 211 212 208 207 208 208 208 208 207 207 208 209 210 212 213 210 210 211 211 211 211 214 218 221 225 230 232 232 230 226 226 233 244 254 262 269 274 277 280 282 282 282 282 282 284 287 292 297 302 306 310 315 319 322 325 328 330 332 332 333 333 334 335 336 338 339 338
204 207 200 200 205 208 214 216 213 213 213 210 210 213 213 208 203 205 209 212 213 211 206 206 209 211 211 210 208 207 207 208 209 210 210 208 208 209 206 206 209 212 215 219 224 228 229 227 224 222 225 233 243 252 260 266 271 275 279 280 281 283 281 281 283 286 290 295 301 305 308 312 316 321 326 330 331 333 334 335 338 341 342 343 344 344 345
202 205 200 200 206 209 214 215 213 214 214 211 210 212 215 214 212 215 217 213 210 208 205 205 207 208 208 208 208 208 207 207 207 206 206 206 207 208 205 205 207 209 212 218 222 223 222 220 220 223 228 234 243 252 259 265 270 274 277 278 281 282 281 281 283 285 288 292 297 301 303 308 314 320 326 329 331 332 334 337 341 344 346 348 348 349 349
199 200 197 200 209 212 214 216 216 211 205 204 206 208 214 215 209 206 207 206 205 204 204 203 202 201 201 204 208 210 208 205 201 200 203 205 206 206 205 205 206 209 213 218 219 219 220 221 221 225 231 237 244 253 261 267 271 274 276 278 280 281 281 281 282 283 286 289 292 296 299 304 312 319 324 327 330 332 334 337 340 343 347 351 353 353 354
197 196 195 203 213 217 218 216 214 208 202 205 206 203 209 215 207 201 204 207 206 203 201 202 200 197 197 204 213 215 208 201 197 196 200 203 203 203 204 204 205 209 214 217 216 218 221 222 224 227 232 239 247 255 263 268 272 274 275 277 279 281 281 282 282 282 283 285 288 292 297 303 310 317 322 325 328 330 332 336 339 342 347 352 355 359 0
196 193 197 206 212 216 216 211 210 208 204 206 206 201 206 215 212 206 205 205 205 202 200 200 199 196 198 207 218 216 208 202 197 194 195 197 196 197 198 199 202 208 213 213 213 216 219 221 225 229 235 243 250 258 265 269 272 273 274 277 280 281 282 282 281 281 281 282 285 290 296 303 310 315 319 323 325 328 332 336 339 342 346 351 356 1 4
196 191 195 202 207 213 212 208 209 209 203 202 203 203 208 214 212 207 204 202 202 202 201 200 197 197 203 212 216 212 205 200 196 193 192 191 190 191 194 196 201 206 208 208 210 214 217 223 229 233 239 248 254 261 267 269 270 272 274 277 280 282 282 281 280 279 279 280 283 288 296 303 309 314 319 322 325 327 331 335 338 340 343 350 356 359 0
196 192 195 201 206 212 212 209 209 208 204 203 203 207 212 212 209 206 203 200 198 198 199 200 200 202 208 213 213 207 200 197 195 194 193 191 190 191 194 197 201 202 202 205 209 214 219 227 233 238 245 252 258 264 268 270 271 274 277 278 279 280 280 278 277 277 277 278 281 286 293 300 307 313 319 322 325 328 331 333 336 340 343 349 355 356 356
198 197 201 206 210 212 212 212 210 208 208 206 205 213 217 211 205 205 203 200 198 194 193 198 204 209 210 208 206 202 195 192 192 192 192 192 192 193 196 199 201 200 201 205 210 216 222 226 232 240 249 255 261 267 271 274 277 279 279 278 276 275 275 275 276 277 276 277 280 284 290 297 304 311 317 321 325 329 331 333 339 345 347 352 357 358 359
201 201 203 210 217 214 210 211 211 210 210 210 213 221 221 209 203 203 201 201 203 198 195 200 208 210 204 197 195 194 191 190 189 189 188 189 190 193 195 197 197 198 201 205 210 217 223 225 233 242 250 257 265 271 275 280 283 282 279 276 274 272 272 274 276 277 276 278 281 284 288 292 299 306 310 315 321 325 328 332 340 349 352 355 1 4 4
203 203 202 208 215 212 207 210 213 212 212 216 221 223 215 205 203 202 199 200 204 203 201 202 200 195 190 188 188 188 188 188 187 187 187 187 189 192 193 194 195 197 202 207 212 220 226 228 236 245 251 260 267 271 276 281 281 280 278 275 273 271 272 273 274 275 277 279 281 283 285 289 295 300 305 309 313 317 320 327 336 345 349 354 3 8 9
201 202 201 203 209 211 208 209 213 214 215 218 217 211 204 202 201 200 198 198 200 200 197 192 186 183 182 183 182 183 185 186 185 186 187 189 191 193 193 196 198 200 205 211 214 220 224 229 237 244 249 257 262 267 273 275 276 278 278 276 273 271 270 271 270 271 274 276 278 279 282 286 292 296 300 305 309 311 315 322 332 339 342 348 359 8 9
199 201 203 209 216 219 215 211 213 215 217 214 205 199 200 201 198 196 196 196 196 196 190 183 181 182 182 182 182 183 187 189 189 189 190 191 193 195 196 198 200 203 207 211 214 219 224 229 237 245 250 255 259 264 267 266 268 272 272 272 272 271 270 268 266 266 269 270 274 276 279 283 287 292 296 302 306 311 315 323 332 336 337 342 352 1 3
201 204 209 215 219 219 213 208 207 206 205 204 199 193 195 198 195 192 191 190 192 192 187 183 184 186 187 187 187 189 192 194 194 194 195 195 195 197 200 202 205 207 210 213 216 221 226 230 237 247 253 256 258 259 259 258 260 261 261 263 268 270 270 268 261 258 260 264 270 275 278 280 285 292 297 303 309 314 322 332 338 340 342 345 349 356 360
202 205 212 214 211 207 202 200 200 196 192 192 188 184 187 191 191 189 188 188 189 188 186 185 187 189 190 189 189 193 196 198 197 197 198 199 199 202 205 208 211 212 214 218 221 223 227 230 236 245 252 252 249 248 249 251 252 253 255 260 265 268 270 267 261 255 254 260 267 274 279 284 291 301 310 321 333 340 347 353 356 357 358 357 358 0 2
200 202 207 208 202 197 193 190 188 184 181 181 180 178 181 183 184 185 186 187 187 187 187 187 187 189 190 188 189 194 197 197 197 198 198 198 199 202 206 210 213 214 216 221 224 226 228 230 233 237 242 243 242 242 244 246 247 252 259 264 265 266 263 260 259 257 257 261 265 273 286 301 319 340 355 7 13 12 9 8 11 12 10 7 6 4 1
184 187 190 186 176 177 180 178 176 174 172 173 174 174 174 175 177 180 182 183 185 187 189 188 186 187 189 189 190 194 197 196 196 197 198 199 200 204 208 212 214 216 218 222 226 229 230 230 230 233 236 237 238 239 240 241 241 246 256 258 253 251 249 248 251 249 246 247 250 263 295 341 11 18 18 20 24 19 11 8 12 15 14 11 6 3 359
166 173 177 170 159 161 169 169 169 172 173 171 170 170 171 172 173 176 179 182 186 188 190 189 186 186 190 192 193 195 197 198 198 197 198 201 204 207 211 212 213 215 218 220 224 228 229 229 228 231 234 234 234 235 236 239 241 239 239 237 227 217 219 222 221 219 219 219 218 217 180 48 31 20 12 11 13 7 358 358 3 6 6 2 356 356 357
179 185 187 183 175 175 176 170 167 171 174 172 170 171 172 173 174 176 179 181 184 186 187 187 186 187 191 193 194 195 197 197 197 197 198 201 204 205 206 207 210 214 217 217 218 223 227 228 228 230 233 234 233 233 235 238 238 230 221 216 211 205 202 199 196 197 199 201 202 180 91 64 45 29 15 7 1 351 343 346 353 356 357 354 351 353 355
192 192 190 185 179 181 183 177 172 175 177 174 174 175 176 176 177 179 180 181 182 184 185 186 186 188 190 191 192 195 198 198 198 198 199 200 201 202 204 207 211 217 219 219 218 221 225 228 228 230 233 231 229 229 229 228 225 218 212 208 207 207 207 204 196 185 175 163 133 79 44 29 24 17 7 2 358 352 346 346 350 352 354 355 356 357 357
189 187 184 180 176 181 185 181 177 179 181 179 179 179 180 181 182 182 183 185 185 186 187 188 188 188 191 193 193 195 198 199 199 199 199 199 199 203 207 210 213 217 219 219 218 219 221 222 223 225 227 227 225 222 220 216 212 210 210 210 208 207 209 209 206 201 196 190 190 334 333 330 328 330 336 343 347 349 351 356 0 1 2 4 6 7 6
189 187 186 182 179 180 183 182 182 185 186 184 184 185 185 186 186 186 186 188 189 189 190 191 190 190 192 194 194 194 196 198 198 197 198 200 203 205 207 211 214 216 216 215 216 217 218 217 216 217 221 223 223 220 218 216 215 214 214 211 208 207 208 210 213 218 224 235 254 272 286 298 306 316 327 337 346 355 6 17 24 27 26 24 23 21 19
189 186 184 183 185 187 188 189 191 193 191 189 188 190 190 189 188 189 187 187 189 191 191 192 192 191 191 192 192 192 194 195 196 197 199 201 203 204 206 210 215 215 213 213 214 217 217 216 215 215 218 220 222 222 220 219 219 217 214 212 212 212 214 217 223 230 239 247 253 258 264 274 290 312 332 349 15 35 42 44 43 42 40 37 34 31 27
197 192 188 190 198 202 200 197 196 197 197 195 193 193 193 191 190 191 190 189 189 190 191 191 190 189 190 192 191 191 192 193 195 198 200 201 203 204 207 211 215 215 213 213 214 217 218 216 214 214 215 216 218 220 220 219 218 216 215 216 218 221 224 228 233 238 240 240 240 242 244 249 266 320 352 10 38 55 59 58 56 52 47 41 36 33 30
210 209 206 204 205 206 204 199 198 199 200 199 198 196 195 194 194 194 194 193 192 191 191 191 190 189 190 192 192 192 193 195 196 197 200 202 203 203 206 211 214 212 210 210 211 213 213 211 210 211 212 213 213 214 215 217 218 220 222 224 225 226 229 230 229 229 227 223 219 217 213 210 207 32 37 52 67 72 69 65 61 56 47 38 32 31 30
221 221 217 211 207 205 203 201 201 202 201 201 200 199 198 197 197 198 198 197 195 193 193 192 192 191 192 192 192 192 194 196 198 200 202 203 202 203 208 212 212 209 208 210 212 213 212 210 210 209 209 210 211 213 214 216 219 222 225 228 228 226 221 215 209 204 201 198 192 185 176 163 137 101 85 84 87 88 83 72 59 49 39 30 26 25 21
227 222 216 212 209 206 204 204 205 204 203 202 201 201 201 201 200 200 200 199 198 197 195 194 193 193 194 194 195 196 196 197 200 202 203 203 203 206 210 212 210 210 211 211 211 210 209 209 209 207 207 209 211 213 214 216 217 218 218 218 217 211 203 196 190 182 174 168 161 154 148 140 128 113 100 95 94 91 85 70 54 47 41 30 23 20 15
225 220 214 211 210 208 207 208 208 207 206 204 203 203 203 203 202 202 203 202 201 200 198 196 195 196 196 197 197 197 198 200 201 202 204 205 207 209 211 212 211 211 210 208 207 207 207 206 206 206 206 208 210 210 211 212 211 207 202 199 196 191 186 182 176 168 162 157 152 147 143 136 126 113 102 96 94 91 87 73 58 51 45 35 28 24 20
218 216 214 212 212 211 210 210 210 209 208 207 205 205 206 205 204 205 205 204 203 201 199 198 198 198 198 198 198 198 200 202 204 205 207 209 209 210 212 213 212 209 207 206 206 206 204 203 204 205 205 205 206 208 208 206 200 194 189 184 179 172 166 160 155 155 154 152 151 151 150 146 139 125 109 100 96 95 93 86 75 64 54 45 37 26 17
215 216 217 216 214 212 212 213 213 212 211 210 208 208 208 206 205 206 207 205 202 201 201 201 200 199 199 199 200 201 203 205 206 208 210 210 210 212 214 213 210 207 205 205 205 204 202 200 200 203 204 203 202 201 198 194 189 184 179 174 168 162 158 153 150 149 149 149 150 155 159 164 165 154 134 119 111 105 93 79 67 55 42 34 22 6 360
217 217 218 217 217 215 214 214 214 213 213 212 210 209 208 206 204 205 206 205 203 203 203 202 200 200 201 201 202 204 206 207 208 209 209 208 209 212 211 207 204 202 201 202 202 201 200 199 198 198 198 195 193 191 188 183 179 174 170 166 163 160 159 159 158 157 158 158 159 163 171 181 189 190 182 168 153 137 108 55 31 20 15 9 359 350 350
216 214 213 213 215 215 214 214 215 213 211 210 210 208 207 206 204 204 204 204 204 204 203 201 200 201 202 202 203 205 206 207 208 209 208 207 207 206 201 198 196 196 196 197 197 196 196 196 192 187 184 180 177 176 175 172 170 167 165 164 164 164 165 167 170 173 175 174 171 173 181 190 198 204 208 212 223 242 267 296 316 332 344 347 345 344 345
208 207 207 208 208 207 207 209 211 210 207 206 207 207 205 203 204 204 203 203 203 203 202 201 200 201 202 203 204 204 204 205 206 206 204 202 201 198 193 190 190 190 190 191 192 191 190 188 182 175 171 167 165 165 166 164 164 166 166 165 166 169 173 176 179 182 184 183 180 182 190 197 204 213 220 230 246 262 272 282 291 301 310 318 328 336 338
202 199 200 201 199 197 198 201 204 204 202 200 202 202 201 200 201 201 200 199 199 200 201 200 200 201 202 202 202 201 201 201 201 200 197 194 192 191 189 187 187 186 185 185 184 183 181 177 173 170 168 166 165 165 165 164 165 168 169 167 167 170 174 178 180 183 187 191 193 198 207 214 219 225 230 240 255 267 273 277 282 287 291 298 313 327 331
193 190 190 190 187 186 189 192 196 198 197 195 196 198 197 196 196 195 194 194 195 197 198 198 198 198 199 198 197 196 195 194 193 192 190 188 186 186 187 186 183 179 176 174 174 173 171 169 168 168 167 168 168 168 168 169 170 172 173 174 176 177 179 183 188 192 198 206 213 220 227 234 243 249 253 256 261 267 271 273 275 277 280 287 302 316 324
180 177 177 177 176 176 178 180 182 184 185 186 188 189 189 189 189 188 188 189 190 192 192 191 190 189 190 189 189 188 187 186 186 184 183 181 180 180 180 179 177 174 170 168 169 168 167 167 167 169 170 172 173 174 176 178 179 179 181 185 189 192 195 200 203 206 212 220 227 234 240 247 256 265 268 267 266 271 276 276 274 272 275 287 299 308 316
173 171 168 168 168 168 168 169 171 172 174 177 180 180 179 180 180 180 180 181 183 184 184 181 180 180 181 182 181 181 181 181 179 177 175 174 173 172 171 170 171 171 169 168 168 169 169 170 172 175 176 177 178 180 182 184 185 185 188 194 199 202 207 213 217 221 227 231 236 241 247 250 256 266 271 268 264 268 276 279 276 275 279 287 296 302 309
164 162 160 160 161 161 160 161 163 165 167 170 173 173 173 173 174 174 175 176 178 179 178 177 176 176 176 176 176 175 175 174 172 171 170 168 167 166 166 167 169 171 171 171 173 174 174 175 178 181 181 180 180 181 182 183 185 188 194 201 207 211 215 218 223 231 239 241 242 245 250 252 255 263 270 270 266 269 275 279 281 285 288 290 293 297 303
157 156 154 154 156 157 157 158 160 163 166 168 169 168 168 170 170 170 171 171 172 173 174 174 174 173 172 171 170 170 170 169 168 167 167 167 166 165 166 168 171 174 175 176 178 180 180 181 183 184 183 183 183 183 182 184 188 194 200 207 215 221 226 228 233 241 248 250 248 247 250 252 253 257 265 268 269 272 280 286 292 298 300 299 299 301 303
156 156 155 154 155 155 155 153 153 154 157 160 161 162 163 166 166 165 164 165 166 168 169 171 172 171 169 167 167 167 167 167 166 166 166 167 168 170 171 173 176 179 180 180 181 182 183 185 185 184 184 186 188 189 189 193 200 205 210 216 221 227 233 238 243 247 251 251 248 245 245 247 250 256 264 269 271 275 281 288 294 299 301 303 304 305 306
150 151 152 153 154 154 154 151 149 149 151 154 156 158 161 163 164 163 162 163 164 165 165 166 167 167 166 165 164 164 164 165 166 166 167 168 171 175 177 177 178 180 181 180 181 183 185 186 186 185 186 190 194 196 198 204 211 215 221 227 231 234 238 242 246 248 248 248 245 242 244 248 254 261 267 272 274 278 282 287 291 295 299 302 304 304 305
148 150 152 153 153 154 155 155 154 153 155 157 158 159 160 160 161 162 162 162 162 162 161 162 163 163 164 164 165 165 166 168 170 170 170 171 173 176 176 175 176 178 179 179 180 183 185 186 187 188 191 196 200 203 208 214 220 223 229 235 238 239 240 242 243 245 247 249 249 250 253 257 261 267 272 274 276 279 282 286 290 294 298 301 303 303 304
153 156 157 157 157 157 157 158 159 159 158 157 157 157 156 155 155 156 157 158 158 159 160 161 162 164 165 167 167 168 169 170 171 171 171 170 171 173 174 175 178 179 180 180 182 186 188 189 190 193 198 204 208 212 216 221 226 229 234 239 242 242 242 244 245 246 249 253 256 258 260 262 265 269 275 277 278 280 283 286 291 295 297 299 301 303 304
156 158 158 158 157 156 156 156 156 156 155 154 154 154 153 153 152 153 154 154 156 157 158 159 160 162 164 165 166 166 166 166 168 170 171 170 171 173 176 179 182 184 185 186 189 191 193 195 196 200 206 213 219 221 223 227 231 234 236 240 243 243 243 246 250 251 252 255 259 261 262 264 267 272 277 279 280 283 285 288 291 294 295 296 298 300 301
159 158 157 156 155 153 152 151 151 152 153 153 153 152 152 152 152 152 153 154 156 157 157 158 159 161 162 163 164 165 166 167 169 172 175 177 179 181 183 185 187 189 191 194 197 199 200 202 204 208 215 223 229 230 229 230 233 237 239 241 243 245 246 248 252 255 255 256 259 262 263 266 270 274 277 279 281 283 286 287 290 292 293 294 296 297 298
159 156 154 153 152 150 148 147 148 150 152 153 152 152 152 153 153 154 155 157 158 159 159 161 162 163 164 164 166 169 171 172 174 177 180 184 187 190 191 192 193 194 196 200 204 207 209 211 214 218 223 230 237 239 236 235 237 240 243 244 247 250 252 252 254 256 258 259 261 264 266 269 272 276 278 278 280 283 285 287 288 289 290 292 294 295 297
153 150 149 148 148 146 146 147 148 150 151 152 153 154 155 155 156 157 160 161 162 163 164 166 168 170 170 171 173 176 178 180 182 186 190 194 197 199 199 199 199 200 203 207 211 215 218 222 227 229 232 235 241 244 244 242 242 244 247 249 251 255 257 258 258 259 260 262 264 266 268 271 273 275 277 278 279 281 283 285 286 287 289 290 292 294 297
151 149 149 149 149 148 150 151 153 153 155 156 157 158 159 160 162 164 166 167 167 168 170 171 174 176 178 180 183 185 186 188 192 197 202 205 206 206 205 206 207 208 211 214 218 222 226 231 235 238 239 242 245 247 249 249 248 249 250 253 255 258 261 263 262 262 263 264 266 268 270 272 273 275 276 278 279 281 283 285 287 288 290 291 292 293 295
154 153 154 155 155 154 155 158 159 160 161 162 164 164 165 166 168 171 172 172 173 176 178 180 182 184 186 189 193 196 199 202 206 209 213 215 214 212 211 212 215 217 219 221 224 227 232 236 240 243 245 247 249 251 252 253 253 253 254 256 257 260 262 264 265 265 265 266 268 269 271 273 274 276 278 279 280 281 283 286 287 288 289 290 291 292 294